This is the latest recevied weather packets stored in our database for station/object KJ6LNH-1. If no packets are shown the sender has not sent any weather packets the latest 10 day(s).
| Time | Temp. | Humidity | Pressure | Rain* | Wind** | Luminosity | Snow |
|---|---|---|---|---|---|---|---|
| 1787958306 | 26.11° C | 38% | 1013.1 hPa | 0 mm | - | - | - |
| 1787958005 | 26.11° C | 36% | 1013.2 hPa | 0 mm | - | - | - |
| 1787957706 | 26.11° C | 36% | 1013.3 hPa | 0 mm | - | - | - |
| 1787957405 | 26.11° C | 36% | 1013.3 hPa | 0 mm | - | - | - |
| 1787957105 | 26.11° C | 37% | 1013.3 hPa | 0 mm | - | - | - |
| 1787956806 | 26.11° C | 40% | 1013.2 hPa | 0 mm | - | - | - |
| 1787956505 | 25.56° C | 43% | 1013.4 hPa | 0 mm | - | - | - |
| 1787956206 | 25° C | 44% | 1013.6 hPa | 0 mm | - | - | - |
| 1787955905 | 24.44° C | 46% | 1013.6 hPa | 0 mm | - | - | - |
| 1787955606 | 23.89° C | 47% | 1013.7 hPa | 0 mm | - | - | - |
| 1787955306 | 24.44° C | 48% | 1013.7 hPa | 0 mm | - | - | - |
| 1787955005 | 23.89° C | 49% | 1013.7 hPa | 0 mm | - | - | - |
| 1787954706 | 23.89° C | 50% | 1013.8 hPa | 0 mm | - | - | - |
| 1787954405 | 23.89° C | 50% | 1013.9 hPa | 0 mm | - | - | - |
| 1787954106 | 23.89° C | 49% | 1013.9 hPa | 0 mm | - | - | - |
| 1787953805 | 23.89° C | 49% | 1013.9 hPa | 0 mm | - | - | - |
| 1787953506 | 23.89° C | 49% | 1013.9 hPa | 0 mm | - | - | - |
| 1787953206 | 23.89° C | 48% | 1013.9 hPa | 0 mm | - | - | - |
| 1787952905 | 23.89° C | 48% | 1014 hPa | 0 mm | - | - | - |
| 1787952606 | 23.89° C | 48% | 1014 hPa | 0 mm | - | - | - |
| 1787952306 | 23.33° C | 49% | 1013.9 hPa | 0 mm | - | - | - |
| 1787952006 | 23.33° C | 49% | 1014 hPa | 0 mm | - | - | - |
| 1787951706 | 23.33° C | 48% | 1014.1 hPa | 0 mm | - | - | - |
| 1787951406 | 23.89° C | 48% | 1014.1 hPa | 0 mm | - | - | - |
| 1787951107 | 23.33° C | 48% | 1014.2 hPa | 0 mm | - | - | - |
* Rain latest hour (hover to see other rain measurements)
** Current wind speed in m/s (hover to see current wind gust speed)